Domov               UVHVVR             MKGP            O straneh              
ZDRAVSTVENO VARSTVO RASTLIN
  MREŽA AGROMET. POSTAJ
 ► PROGNOSTIČNA OBVESTILA
AGROMETEOROLOŠKI PODATKI -
ARSO
OBVLADOVANJE TVEGANJ ZARADI
NEUGODNIH VREMENSKIH RAZMER
  ► NARAVNE NESREČE
  ► SUŠA/MOČA
  ► NAMAKANJE
  ► ŽLED (gozdarstvo)
KARTOGRAFSKI PRIKAZI
SPLETNE POVEZAVE
PROJEKTI IN PUBLIKACIJE

AGROMETEOROLOŠKA MREŽA: VREMENSKE POSTAJE IN FENOLOŠKA OPAZOVANJA

Pregled podatkov za lokacijo Litmerk, meteorološka postaja 27388

Pregled senzorjev na lokaciji

ID Ime Zadnja
vrednost
Datum
zadnje
spremembe
Tip
senzorja
1457 Omočenost lista (U) 9 U 18.3.2019 23:00 A730WET
953 Padavine (mm) 0 mm 18.3.2019 23:00 Generic 0.2 mm
1459 Relativna vlaga 2 m (% RH) 99,93 % RH 18.3.2019 23:00 Generic 0 - 100 %
1458 Temperatura 2 m (°C) 2,49 °C 18.3.2019 23:00 Generic -40 - +60 °C

Pregled podatkov zadnjih 24 ur

Zap.
št.
Datum in čas Litmerk
Omočenost
lista
Padavine Relativna
vlaga
2
m
Temperatura
2
m
1 18.3.2019 22:30
2 18.3.2019 22:00 9 0 99,9 2,5
3 18.3.2019 21:30 2 0 97,3 2,8
4 18.3.2019 21:00 1 0 90,6 3
5 18.3.2019 20:30 5 0 95,3 2,8
6 18.3.2019 20:00 5 0 99,9 2,8
7 18.3.2019 19:30 6 0 99,7 2,8
8 18.3.2019 19:00 7 0 99,9 2,9
9 18.3.2019 18:30 5 0 99,9 2,8
10 18.3.2019 18:00 2 0 99,9 2,9
11 18.3.2019 17:30 1 0 99,9 2,9
12 18.3.2019 17:00 1 0 99,9 3,1
13 18.3.2019 16:30 1 0 99,9 3,2
14 18.3.2019 16:00 1 0 99,9 3,3
15 18.3.2019 15:30 5 0 97,9 3,7
16 18.3.2019 15:00 2 0 93,1 3,7
17 18.3.2019 14:30 8 0 92,7 3,6
18 18.3.2019 14:00 7 0,4 95,2 3,4
19 18.3.2019 13:30 7 0,2 99,1 2,9
20 18.3.2019 13:00 9 0,2 99,8 2,7
21 18.3.2019 12:30 7 0 99,9 2,4
22 18.3.2019 12:00 5 0,4 99,9 1,6
23 18.3.2019 11:30 5 1,4 99,9 1,1
24 18.3.2019 11:00 4 2,4 99,9 0,1
25 18.3.2019 10:30 3 2,2 99,9 1,1
26 18.3.2019 10:00 4 2,4 99,9 -0,6
27 18.3.2019 09:30 4 2,2 99,9 1,7
28 18.3.2019 09:00 7 1,6 99,9 3,1
29 18.3.2019 08:30 7 0,8 98,9 3,3
30 18.3.2019 08:00 7 2,6 99,9 3,8
31 18.3.2019 07:30 9 2 99,9 4,1
32 18.3.2019 07:00 10 1 99,5 4,3
33 18.3.2019 06:30 10 2 95,4 5,1
34 18.3.2019 06:00 10 2,2 93,9 7,3
35 18.3.2019 05:30 4 0 81,6 9
36 18.3.2019 05:00 10 0 79,2 10,8
37 18.3.2019 04:30 1 0 74,1 11,2
38 18.3.2019 04:00 1 0 71,2 11,3
39 18.3.2019 03:30 1 0 68,8 11,2
40 18.3.2019 03:00 1 0 71,8 10,8
41 18.3.2019 02:30 1 0 69,5 11
42 18.3.2019 02:00 1 0 69,8 11,1
43 18.3.2019 01:30 1 0 68,4 11,3
44 18.3.2019 01:00 1 0 67 11,6
45 18.3.2019 00:30 1 0 65,3 11,8
46 18.3.2019 00:00 1 0 63,3 11,9
47 17.3.2019 23:30 0 0 61,7 12,1
48 17.3.2019 23:00 0 0 60,7 12,3
© 2011 Ministrstvo za kmetijstvo, gozdarstvo in prehrano. Vse pravice pridržane.